Weather History for KP60 - October, 2011

Change the Weather History Date:

Tuesday, October 18, 2011

  Actual Average Record
Temperature  
Mean Temperature 34 °F 35 °F  
Max Temperature 48 °F 47 °F 64 °F (2003)
Min Temperature 21 °F 23 °F 11 °F (2013)
Degree Days  
Heating Degree Days 32 30  
Month to date heating degree days 486  
Since 1 July heating degree days 1621  
Cooling Degree Days 0 0  
Month to date cooling degree days 0  
Year to date cooling degree days 0  
Moisture  
Dew Point 24 °F    
Average Humidity 77    
Maximum Humidity 92    
Minimum Humidity 44    
Precipitation  
Precipitation 0.00 in 0.05 in 0.39 in (2004)
Month to date precipitation 0.72  
Year to date precipitation 16.09  
Sea Level Pressure  
Sea Level Pressure 30.47 in    
Wind  
Wind Speed 1 mph (NW)    
Max Wind Speed 5 mph    
Max Gust Speed -    
T = Trace of Precipitation, MM = Missing Value Source: NWS Daily Summary

Daily Weather History Graph

Daily Weather History Graph

Search for Another Location

Airport or City:

Trip Planner

Search our weather history database for the weather conditions in past years. The results will help you decide how hot, cold, wet, or windy it might be!

Date:

Astronomy

Oct. 18, 2011 Rise Set
Actual Time 7:40 AM MDT 6:32 PM MDT
Civil Twilight 7:10 AM MDT 7:01 PM MDT
Nautical Twilight 6:37 AM MDT 7:35 PM MDT
Astronomical Twilight 6:03 AM MDT 8:09 PM MDT
Moon 11:09 PM MDT (10/18) 1:42 PM MDT (10/18)
Length of Visible Light 11h 51m
Length of Day
10h 52m
Waning Gibbous, 64% of the Moon is Illuminated
Oct 18
Waning Gibbous
Oct 19
Last Quarter
Oct 26
New
Nov 2
First Quarter
Nov 10
Full

Hourly Weather History & Observations

Time (MDT) Temp. Windchill Dew Point Humidity Pressure Visibility Wind Dir Wind Speed Gust Speed Precip Events Conditions
12:56 AM 27.0 °F - 25.0 °F 92% 30.45 in - Calm Calm - N/A   Unknown
1:56 AM 26.1 °F - 24.1 °F 92% 30.45 in - Calm Calm - N/A   Unknown
2:56 AM 25.0 °F - 23.0 °F 92% 30.46 in - Calm Calm - N/A   Unknown
3:56 AM 24.1 °F 19.7 °F 21.9 °F 91% 30.48 in - WNW 3.5 mph - N/A   Unknown
4:56 AM 23.0 °F - 21.0 °F 92% 30.49 in - Calm Calm - N/A   Unknown
5:56 AM 21.9 °F - 19.0 °F 89% 30.51 in - Calm Calm - N/A   Unknown
6:56 AM 21.0 °F 16.2 °F 19.0 °F 92% 30.52 in - NW 3.5 mph - N/A   Unknown
7:56 AM 21.0 °F - 19.0 °F 92% 30.54 in - Calm Calm - N/A   Unknown
8:56 AM 26.1 °F - 24.1 °F 92% 30.53 in - Calm Calm - N/A   Unknown
9:56 AM 33.1 °F - 28.0 °F 82% 30.50 in - Calm Calm - N/A   Unknown
10:56 AM 36.0 °F 33.3 °F 28.0 °F 73% 30.51 in - ESE 3.5 mph - N/A   Unknown
11:56 AM 37.0 °F 33.3 °F 27.0 °F 67% 30.50 in - Variable 4.6 mph - N/A   Unknown
12:56 PM 39.0 °F 35.7 °F 27.0 °F 62% 30.49 in - Variable 4.6 mph - N/A   Unknown
1:56 PM 42.1 °F 40.2 °F 27.0 °F 55% 30.45 in - Variable 3.5 mph - N/A   Unknown
2:56 PM 43.0 °F 40.3 °F 27.0 °F 53% 30.43 in - Variable 4.6 mph - N/A   Unknown
3:56 PM 45.0 °F - 28.0 °F 52% 30.40 in - Calm Calm - N/A   Unknown
4:56 PM 46.9 °F - 26.1 °F 44% 30.39 in - Calm Calm - N/A   Unknown
5:56 PM 43.0 °F 41.3 °F 23.0 °F 45% 30.41 in - West 3.5 mph - N/A   Unknown
6:56 PM 32.0 °F - 26.1 °F 79% 30.47 in - Calm Calm - N/A   Unknown
7:56 PM 28.9 °F - 24.1 °F 82% 30.50 in - Calm Calm - N/A   Unknown
8:56 PM 28.0 °F 24.2 °F 24.1 °F 85% 30.48 in - NW 3.5 mph - N/A   Unknown
9:56 PM 27.0 °F - 23.0 °F 85% 30.43 in - Calm Calm - N/A   Unknown
10:56 PM 26.1 °F - 23.0 °F 88% 30.41 in - Calm Calm - N/A   Unknown
11:56 PM 26.1 °F - 21.9 °F 84% 30.39 in - Calm Calm - N/A   Unknown